Location: Unspecified
(40.7945°N, 111.1337°W)
Time: 21:19:46
(UTC-06:00)

Envisat - Visible Passes

Search period start: 25 May 2019 00:00
Search period end: 04 June 2019 00:00
Orbit: 764 x 766 km, 98.2° (Epoch: 25 May)

Date Brightness Start Highest point End Pass type
(mag) Time Alt. Az. Time Alt. Az. Time Alt. Az.
25 May 6.0 21:27:22 10° WSW 21:29:00 11° W 21:30:38 10° WNW visible
28 May 5.8 21:14:47 10° SW 21:17:38 15° W 21:20:29 10° NW visible
02 Jun 6.2 21:31:31 10° W 21:32:06 10° W 21:32:42 10° W visible
